Location: *
(43.2048°N, 0.1612°E)
Time: 20:21:55
(UTC+00:00)

Cosmos 1867 - Pass Details

Date: 30 September 2023
Orbit: 774 x 800 km, 65.0° (Epoch: 06 December)

Event Time Altitude Azimuth Distance (km) Brightness Sun altitude
Rises 03:49:23 0° 329° (NNW) 3,314 6.7 -23.4°
Reaches altitude 10° 03:51:53 10° 335° (NNW) 2,382 6.0 -22.9°
Maximum altitude 03:57:14 51° 51° (NE) 1,006 4.4 -22.0°
Drops below altitude 10° 04:02:32 10° 127° (SE) 2,368 6.5 -21.1°
Sets 04:05:01 0° 132° (SE) 3,293 7.2 -20.7°
